[[{"header":{"parameterUnit":"m.s-1","parameterCategory":1,"la1":30.2991,"la2":30.254,"lo1":-89.0895,"lo2":-89.0444,"dy":0.0017,"dx":0.0017,"nx":28,"ny":28,"refTime":"2024-12-07T09:00:00:Z","depth":0,"parameterNumber":2,"parameterNumberName":"U-component_of_WINDS"},"data":[0,0,0,0,0,0,0,0,0,0,0,0,0,0,0,0,0,0,0,0,0,0,0,0,0,0,0,0,0,0,0,0,0,0,0,0,0,0,0,0,0,0,0,0,0,0,0,0,0,0,0,0,0,0,0,0,0,0,-3.4142,-3.4142,0,-3.4141,-3.4141,-3.4141,-3.4007,-3.4003,-3.4,-3.3996,-3.3998,-3.4001,-3.4004,0,0,0,0,0,0,0,0,0,0,0,0,0,-3.4027,-3.403,-3.4142,-3.4142,-3.4142,-3.4141,-3.4141,-3.4141,-3.4007,-3.4003,-3.3999,-3.3995,-3.3996,-3.4,-3.4004,0,0,0,0,0,0,0,0,0,0,0,0,0,-3.4057,-3.4031,-3.4142,-3.4075,-3.4069,-3.4141,-3.4141,-3.4141,-3.4008,-3.4003,-3.3998,-3.3993,-3.3995,-3.4,-3.4005,-3.4142,0,0,-3.402,-3.4022,0,0,0,0,0,0,0,0,-3.4056,-3.4061,-3.4085,-3.408,-3.4073,-3.4069,-3.4101,-3.4142,-3.401,-3.4031,-3.3996,-3.399,-3.4026,-3.4028,-3.4039,-3.4142,-3.4142,-3.4021,-3.4024,-3.4026,-3.4027,0,0,0,0,0,0,0,-3.4054,-3.4061,-3.4142,-3.4085,-3.4078,-3.4045,-3.4043,-3.4108,-3.4058,-3.4029,-3.4019,-3.4021,-3.4021,-3.4035,-3.4038,-3.4142,-3.402,-3.4025,-3.4028,-3.403,-3.4355,-3.436,0,0,0,0,0,0,-3.4061,-3.406,-3.4142,-3.4142,-3.4051,-3.4051,-3.405,-3.4075,-3.4057,-3.4049,-3.4025,-3.4015,-3.4029,-3.4033,-3.4038,-3.4195,-3.4026,-3.403,-3.4033,-3.4349,-3.4356,-3.4362,0,0,0,0,0,0,-3.4059,-3.4069,-3.4142,-3.4098,-3.4105,-3.4059,-3.4089,-3.4078,-3.4091,-3.4054,-3.4045,-3.4048,-3.4025,-3.4031,-3.4116,-3.4194,-3.4033,-3.4037,-3.4343,-3.4352,-3.4359,-3.4513,0,0,0,0,0,0,-3.4056,-3.4069,-3.4121,-3.41,-3.4108,-3.4221,-3.4094,-3.4082,-3.41,-3.4086,-3.4073,-3.4066,-3.4021,-3.411,-3.4122,-3.4198,-3.4041,-3.4336,-3.4347,-3.4357,-3.4501,-3.4526,-3.4547,0,0,0,0,0,-3.4052,-3.4165,-3.4124,-3.4135,-3.4171,-3.4225,-3.4229,-3.4175,-3.4107,-3.4158,-3.4134,-3.4067,-3.4184,-3.412,-3.4132,-3.4211,-3.4331,-3.4344,-3.4356,-3.4491,-3.4521,-3.4547,0,0,0,0,0,0,-3.4197,-3.4161,-3.4116,-3.4225,-3.4229,-3.4202,-3.4266,-3.4209,-3.4233,-3.4219,-3.4151,-3.4149,-3.4245,-3.4236,-3.4166,-3.4341,-3.4245,-3.4261,-3.4343,-3.4372,-3.4395,-3.4394,-3.4045,0,0,0,0,0,-3.4242,-3.4288,-3.4255,-3.4354,-3.4359,-3.4312,-3.4334,-3.4291,-3.4293,-3.4294,-3.4276,-3.4281,-3.4319,-3.4345,-3.4378,-3.4499,-3.4494,-3.456,-3.4583,-3.4602,-3.4616,-3.4678,-3.4707,-3.4404,-3.4404,-3.4404,0,0,-3.4334,-3.432,-3.4354,-3.4383,-3.4381,-3.4431,-3.4315,-3.4373,-3.4409,-3.4303,-3.4382,-3.437,-3.437,-3.4475,-3.4519,-3.447,-3.4698,-3.4618,-3.4634,-3.4637,-3.4694,-3.4723,-3.4749,-3.4413,-3.4411,-3.441,0,0,-3.4528,-3.4523,-3.4604,-3.4605,-3.4603,-3.4571,-3.4591,-3.4573,-3.456,-3.4638,-3.456,-3.4602,-3.4669,-3.4672,-3.4682,-3.4876,-3.4815,-3.4889,-3.5009,-3.5071,-3.5095,-3.5116,-3.5184,-3.5209,-3.4903,-3.4904,-3.4904,0,-3.4644,-3.4715,-3.4654,-3.4716,-3.4731,-3.4637,-3.4719,-3.4722,-3.4732,-3.4744,-3.4689,-3.4769,-3.4763,-3.4866,-3.4913,-3.4925,-3.4945,-3.489,-3.5096,-3.5116,-3.5135,-3.5199,-3.5225,-3.4913,-3.4912,-3.4911,-3.491,0,-3.4856,-3.4907,-3.4973,-3.4983,-3.5005,-3.5078,-3.5027,-3.5057,-3.5013,-3.4987,-3.5067,-3.5057,-3.5085,-3.5106,-3.5064,-3.5203,-3.5172,-3.5108,-3.5009,-3.5174,-3.5233,-3.5257,-3.4926,-3.4922,-3.492,-3.4917,0,0,-3.5141,-3.5116,-3.5141,-3.5144,-3.5135,-3.5173,-3.5241,-3.5267,-3.5294,-3.5304,-3.5358,-3.5416,-3.5356,-3.5368,-3.5325,-3.538,-3.5532,-3.5308,-3.5307,-3.5349,-3.5683,-3.5731,-3.576,-3.5492,-3.5496,-3.55,-3.5683,0,-3.5328,-3.5441,-3.5387,-3.5507,-3.5552,-3.5463,-3.5522,-3.5523,-3.5501,-3.5536,-3.5511,-3.5553,-3.5471,-3.5477,-3.5527,-3.5503,-3.5598,-3.5489,-3.5541,-3.5544,-3.5543,-3.5791,-3.5842,-3.6015,-3.5706,-3.571,-3.5712,0,-3.556,-3.5579,-3.5703,-3.5683,-3.57,-3.5754,-3.5773,-3.5809,-3.5808,-3.5787,-3.5801,-3.5745,-3.581,-3.5713,-3.5801,-3.5728,-3.5746,-3.5738,-3.5743,-3.5745,-3.5637,-3.5799,-3.607,-3.6095,-3.5748,-3.5745,-3.5743,0,-3.5754,-3.581,-3.589,-3.5896,-3.5876,-3.5916,-3.591,-3.5903,-3.5922,-3.594,-3.5951,-3.5977,-3.599,-3.6011,-3.5964,-3.5898,-3.6058,-3.5957,-3.6042,-3.6044,-3.6079,-3.6078,-3.6356,-3.6094,-3.6093,-3.6093,-3.6092,0,-3.5967,-3.6046,-3.5977,-3.6027,-3.6112,-3.605,-3.6136,-3.612,-3.6116,-3.616,-3.6086,-3.613,-3.6065,-3.6102,-3.6066,-3.6143,-3.6151,-3.6136,-3.6125,-3.6142,-3.6144,-3.6152,-3.6138,-3.61,-3.6098,-3.6097,-3.6096,0,-3.6198,-3.6155,-3.6236,-3.6211,-3.6206,-3.627,-3.6248,-3.6293,-3.6265,-3.6323,-3.6333,-3.629,-3.633,-3.6284,-3.6322,-3.6297,-3.6402,-3.6374,-3.6402,-3.6393,-3.648,-3.6472,-3.6772,-3.6808,-3.6525,-3.6528,-3.653,0,-3.6336,-3.6394,-3.6374,-3.6398,-3.6396,-3.6437,-3.6455,-3.6396,-3.6419,-3.6422,-3.6466,-3.65,-3.6523,-3.6592,-3.6564,-3.6592,-3.6563,-3.6666,-3.6566,-3.6581,-3.6563,-3.6559,-3.6564,-3.6686,-3.669,-3.6692,-3.6695,0,-3.6585,-3.6561,-3.659,-3.6612,-3.6635,-3.665,-3.6659,-3.6684,-3.6622,-3.6651,-3.6691,-3.6709,-3.6746,-3.678,-3.68,-3.6793,-3.6734,-3.6726,-3.6747,-3.6764,-3.6777,-3.677,-3.6456,-3.6719,-3.6717,-3.6715,-3.6714,-3.6713,-3.6772,-3.6819,-3.6812,-3.6847,-3.6847,-3.6857,-3.6897,-3.6874,-3.6906,-3.693,-3.6894,-3.6943,-3.694,-3.696,-3.696,-3.6998,-3.6954,-3.6985,-3.6992,-3.7,-3.7013,-3.6773,-3.7002,-3.7001,-3.7,-3.7,-3.6999,0,-3.7016,-3.7007,-3.704,-3.7054,-3.7081,-3.7022,-3.7029,-3.7056,-3.7099,-3.7101,-3.7125,-3.717,-3.7203,-3.7178,-3.7205,-3.724,-3.7213,-3.7249,-3.7245,-3.7244,-3.7051,-3.703,-3.727,-3.727,-3.7269,-3.7269,-3.7269,-3.7269,-3.7146,-3.7222,-3.7197,-3.7272,-3.7262,-3.7308,-3.7317,-3.7326,-3.7326,-3.738,-3.7406,-3.7389,-3.7379,-3.7405,-3.7432,-3.7424,-3.7437,-3.7482,-3.7464,-3.7284,-3.7258,-3.7232,-3.7212,-3.7486,-3.7486,-3.7653,-3.7655,-3.7656]},{"header":{"parameterUnit":"m.s-1","parameterCategory":1,"la1":30.2991,"la2":30.254,"lo1":-89.0895,"lo2":-89.0444,"dy":0.0017,"dx":0.0017,"nx":28,"ny":28,"refTime":"2024-12-07T09:00:00:Z","depth":0,"parameterNumber":3,"parameterNumberName":"V-component_of_WINDS"},"data":[0,0,0,0,0,0,0,0,0,0,0,0,0,0,0,0,0,0,0,0,0,0,0,0,0,0,0,0,0,0,0,0,0,0,0,0,0,0,0,0,0,0,0,0,0,0,0,0,0,0,0,0,0,0,0,0,0,0,-0.506,-0.506,0,-0.5057,-0.5057,-0.5057,-0.5079,-0.508,-0.5081,-0.5081,-0.5078,-0.5077,-0.5077,0,0,0,0,0,0,0,0,0,0,0,0,0,-0.5083,-0.5083,-0.506,-0.506,-0.506,-0.5057,-0.5057,-0.5057,-0.5079,-0.508,-0.5081,-0.5082,-0.5078,-0.5077,-0.5077,0,0,0,0,0,0,0,0,0,0,0,0,0,-0.5076,-0.5082,-0.506,-0.5071,-0.5072,-0.5057,-0.5057,-0.5057,-0.5079,-0.508,-0.5081,-0.5082,-0.5079,-0.5078,-0.5077,-0.5052,0,0,-0.5073,-0.5073,0,0,0,0,0,0,0,0,-0.5076,-0.5075,-0.5069,-0.507,-0.5071,-0.507,-0.5064,-0.5055,-0.5079,-0.5076,-0.5081,-0.5082,-0.5074,-0.5074,-0.5071,-0.5051,-0.5051,-0.5073,-0.5073,-0.5072,-0.5072,0,0,0,0,0,0,0,-0.5077,-0.5075,-0.5059,-0.5069,-0.507,-0.5075,-0.5075,-0.5062,-0.507,-0.5077,-0.5078,-0.5078,-0.5075,-0.5072,-0.5071,-0.5051,-0.5073,-0.5073,-0.5072,-0.5072,-0.5008,-0.5007,0,0,0,0,0,0,-0.5076,-0.5076,-0.5059,-0.5059,-0.5076,-0.5074,-0.5074,-0.5069,-0.507,-0.5071,-0.5077,-0.5079,-0.5073,-0.5072,-0.5071,-0.504,-0.5072,-0.5071,-0.5071,-0.501,-0.5008,-0.5007,0,0,0,0,0,0,-0.5076,-0.5074,-0.5059,-0.5068,-0.5066,-0.5073,-0.5067,-0.5068,-0.5066,-0.507,-0.5072,-0.5072,-0.5074,-0.5073,-0.5056,-0.504,-0.5071,-0.507,-0.5011,-0.5009,-0.5008,-0.4979,0,0,0,0,0,0,-0.5077,-0.5074,-0.5065,-0.5067,-0.5065,-0.5044,-0.5066,-0.5068,-0.5064,-0.5066,-0.5067,-0.5068,-0.5075,-0.5057,-0.5055,-0.504,-0.5069,-0.5012,-0.501,-0.5008,-0.4981,-0.4976,-0.4972,0,0,0,0,0,-0.5078,-0.5058,-0.5065,-0.5062,-0.5054,-0.5043,-0.5042,-0.505,-0.5063,-0.5053,-0.5056,-0.5068,-0.5043,-0.5055,-0.5053,-0.5037,-0.5013,-0.5011,-0.5008,-0.4983,-0.4977,-0.4973,0,0,0,0,0,0,-0.5054,-0.5058,-0.5066,-0.5046,-0.5044,-0.5047,-0.5035,-0.5044,-0.5039,-0.5041,-0.5052,-0.5052,-0.5033,-0.5034,-0.5047,-0.5012,-0.503,-0.5027,-0.5012,-0.5006,-0.5002,-0.5001,-0.5068,0,0,0,0,0,-0.5046,-0.5037,-0.5041,-0.5023,-0.5022,-0.5028,-0.5024,-0.5031,-0.5029,-0.5028,-0.503,-0.5027,-0.5019,-0.5013,-0.5006,-0.4982,-0.4981,-0.497,-0.4966,-0.4962,-0.4958,-0.4944,-0.4938,-0.4999,-0.4999,-0.4999,0,0,-0.503,-0.5032,-0.5025,-0.5018,-0.5017,-0.5007,-0.5028,-0.5016,-0.5008,-0.5026,-0.501,-0.5011,-0.5009,-0.4988,-0.4979,-0.4988,-0.4942,-0.4959,-0.4956,-0.4954,-0.4941,-0.4935,-0.493,-0.4997,-0.4998,-0.4998,0,0,-0.4995,-0.4996,-0.498,-0.4979,-0.4977,-0.4982,-0.4978,-0.4979,-0.498,-0.4964,-0.4977,-0.4968,-0.4953,-0.4951,-0.4947,-0.491,-0.492,-0.4908,-0.4884,-0.487,-0.4865,-0.4861,-0.4845,-0.484,-0.4905,-0.4905,-0.4905,0,-0.4976,-0.496,-0.4971,-0.4957,-0.4953,-0.497,-0.4953,-0.4951,-0.4947,-0.4943,-0.4954,-0.4935,-0.4935,-0.4912,-0.4903,-0.4901,-0.4895,-0.4907,-0.4865,-0.4861,-0.4857,-0.4842,-0.4837,-0.4903,-0.4903,-0.4904,-0.4904,0,-0.4935,-0.4924,-0.4911,-0.4906,-0.4901,-0.4886,-0.4894,-0.4887,-0.4894,-0.4897,-0.4879,-0.488,-0.4872,-0.4868,-0.4875,-0.4845,-0.4851,-0.4863,-0.4881,-0.4849,-0.4835,-0.483,-0.4901,-0.4901,-0.4902,-0.4902,0,0,-0.4884,-0.4885,-0.488,-0.4877,-0.4876,-0.4867,-0.4853,-0.4845,-0.4838,-0.4835,-0.4821,-0.4808,-0.4819,-0.4815,-0.4822,-0.481,-0.4778,-0.4824,-0.4824,-0.4813,-0.4743,-0.4732,-0.4725,-0.4785,-0.4784,-0.4783,-0.4742,0,-0.4848,-0.4823,-0.4832,-0.4806,-0.4794,-0.481,-0.4797,-0.4794,-0.4797,-0.4787,-0.479,-0.478,-0.4796,-0.4793,-0.4782,-0.4784,-0.4763,-0.4788,-0.4771,-0.477,-0.4769,-0.4719,-0.4707,-0.4668,-0.4737,-0.4736,-0.4736,0,-0.4803,-0.4797,-0.477,-0.4769,-0.4765,-0.4753,-0.4745,-0.4737,-0.4734,-0.4736,-0.4731,-0.4741,-0.4725,-0.4745,-0.4723,-0.4739,-0.4733,-0.4733,-0.4731,-0.4728,-0.4749,-0.4712,-0.4656,-0.465,-0.4728,-0.4728,-0.4729,0,-0.4766,-0.4751,-0.4732,-0.473,-0.4729,-0.472,-0.4719,-0.4717,-0.4711,-0.4705,-0.4701,-0.4693,-0.4688,-0.4681,-0.4687,-0.4702,-0.4663,-0.4684,-0.4664,-0.4663,-0.4653,-0.4653,-0.4594,-0.4653,-0.4653,-0.4654,-0.4654,0,-0.4723,-0.4705,-0.4715,-0.4703,-0.4683,-0.4693,-0.4673,-0.4674,-0.4672,-0.466,-0.4673,-0.4661,-0.4672,-0.4661,-0.4666,-0.4645,-0.4644,-0.4644,-0.4645,-0.4642,-0.4641,-0.4636,-0.4638,-0.4652,-0.4652,-0.4653,-0.4653,0,-0.4677,-0.4683,-0.4663,-0.4664,-0.4664,-0.4649,-0.4649,-0.4638,-0.4641,-0.4626,-0.4623,-0.4628,-0.4615,-0.4622,-0.4609,-0.4612,-0.4585,-0.4591,-0.4586,-0.4586,-0.4564,-0.4565,-0.4497,-0.4488,-0.4556,-0.4556,-0.4555,0,-0.4649,-0.4635,-0.4634,-0.4627,-0.4625,-0.4613,-0.4607,-0.4617,-0.4609,-0.4604,-0.4593,-0.4582,-0.4573,-0.4552,-0.4554,-0.4544,-0.4549,-0.4526,-0.4547,-0.4543,-0.4545,-0.4545,-0.4542,-0.452,-0.452,-0.4519,-0.4519,0,-0.4596,-0.46,-0.459,-0.4581,-0.4573,-0.4567,-0.4562,-0.4555,-0.4564,-0.4555,-0.4542,-0.4535,-0.4522,-0.451,-0.4501,-0.45,-0.4509,-0.4512,-0.4506,-0.4501,-0.4497,-0.4496,-0.4571,-0.4513,-0.4514,-0.4514,-0.4514,-0.4514,-0.4556,-0.4544,-0.4541,-0.4529,-0.4526,-0.4521,-0.4509,-0.4511,-0.4501,-0.449,-0.4497,-0.4481,-0.4477,-0.4466,-0.4463,-0.4451,-0.446,-0.4452,-0.4449,-0.4447,-0.4442,-0.4501,-0.4449,-0.445,-0.445,-0.445,-0.445,0,-0.4502,-0.4501,-0.449,-0.4482,-0.4473,-0.4484,-0.4478,-0.4469,-0.4455,-0.4451,-0.4442,-0.4426,-0.4415,-0.4416,-0.4404,-0.4394,-0.4398,-0.439,-0.439,-0.4389,-0.4436,-0.4441,-0.4387,-0.4387,-0.4387,-0.4387,-0.4387,-0.4387,-0.4473,-0.4452,-0.4455,-0.4432,-0.4431,-0.4415,-0.4411,-0.4405,-0.4402,-0.4383,-0.4374,-0.4375,-0.4372,-0.436,-0.4349,-0.435,-0.4344,-0.4334,-0.4336,-0.438,-0.4386,-0.4392,-0.4396,-0.4333,-0.4333,-0.4289,-0.4289,-0.4289]}]]